COSMOS 1275 DEB, 42189

Orbit data source: Space-Track

COSMOS 1275 DEB, 42189 is space debris in LEO originally from a launch on Thu, 04 Jun 1981 UTC launched from the Plesetsk Missile And Space Complex (PKMTR). Debris objects in space refer to the collection of defunct objects orbiting the Earth. Examples of debris include non-operational satellites, rocket bodies, and fragments generated from explosions, collisions, or faulty payload assembly.

Loading next visibility...
COSMOS 1275 DEB details
Identifier
42189, 1981-053TD
Orbit
LEO
Last TLE update6 days ago
Origin
Flag of CISGUKOS (CIS)
ManufacturerUnknown
MissionSpacecraft
Bus & MotorUnknown
MassUnknown
Launch date (UTC)
1981-06-04 (44 years ago)
Launch vehicleUnknown
Launch site
Plesetsk Missile And Space Complex (PKMTR)
Object type
Payload
Rocket body
Debris
Shape & HBRUnknown
Radar Cross SectionSmall (<0.1 m²)

Expand to show TLE details & history

TLE from 6 days ago
0 COSMOS 1275 DEB
1 42189U 81053TD  24355.66212286  .00001427  00000-0  15017-2 0  9993
2 42189  83.0191 328.6764 0124745 114.1586 247.2669 13.70780263100175
Epoch: 2024-12-20T15:53Z
Definitive object data (Epoch: 2024-12-20T15:53:27.415Z)
Latitude-0.00008°
Longitude0.58774°
Altitude1,036.196 km
Speed7.316 km/s
True Right ascension21h 54m 42s
True Declination0° 00' 00"
Sunlit
Object was in daylight at TLE epoch
Visualization TLE readout
Latitude46.52852°
Longitude3.71392°
Altitude945.326 km
Speed7.413 km/s
Apparent Right ascension22h 51m 31s
Apparent Declination7° 08' 08"
Sunlit
Object is in daylight
Visualization observer readout
Local Sidereal Time11:37:11
Azimuth15.271° NNE
Elevation-41.781°
Doppler factor1
Orbital elements
Apogee altitude1,085.885 km
Perigee altitude901.959 km
Semi-major axis7,372.059 km
Eccentricity0.0124745
Inclination83.0191°
RAAN328.6764°
Arg. of periapsis114.1586°
True anomaly245.95649°
Mean anomaly247.2669°
Eccentric anomaly246.61089°
Mean motion3.42894 °/min
BSTAR0.0015017
Orbital period104.99 mins
Loading maneuver chart data...
Loading historical data...
Loading historical data...
Loading historical data...
Loading historical data...
Loading historical data...
Loading historical data...
Loading historical data...

COSMOS 1275 DEB Visibility forecast

Observer location: undefined°, undefined

Span
Click to sort rows by Start time (UTC) header in descending order
Start Az.
Max El. time (UTC)
Max El. Az.
Max El.
End time (UTC)
End Az.
4 mins2024-12-26 20:57:42.247Z98.953° ESE2024-12-26 20:59:42.247Z78.116° E13.016°2024-12-26 21:01:42.247Z57.697° ENE
10 mins2024-12-26 22:39:42.247Z191.521° SSW2024-12-26 22:44:42.247Z303.56° NW44.298°2024-12-26 22:49:42.247Z3.627° NNE
10 mins2024-12-27 09:38:42.247Z354.669° N2024-12-27 09:43:42.247Z137.509° SSE44.728°2024-12-27 09:48:42.247Z172.459° S
|